Willaura Estates, California
Current Conditions -  °F | °C
As of 3:40 PM on Wednesday 22 Oct 2014 (Local Time) from KGOO Reporting Station
Clear Clear  
Wind Chill: 64°   Ceiling: Unl
Heat Index: 64°   Visibility: 10mi
Dew Point: 36°   Wind: 3mph
Humidity: 34%   Direction: 160°SSE
Pressure: 30.09"   Gusts: NA
Location:  39.2183°N, 120.924°W
Report Text: KGOO 222240Z AUTO 16003KT 10SM CLR 18/02 A3009 RMK AO1
Loading
Personal Weather Stations






























Interactive Weather Map
Tropical Storm Tracking
New forecast layout! Learn more

10-Day Weather Forecast

Advertisements
Track Severe Weather on mobile